Location: Newark
(40.9833°N, 0.0333°W)
Time: 14:23:47
(UTC+00:00)

Courier 1B Rocket - All Passes

Search period start: 30 October 2020 00:00
Search period end: 09 November 2020 00:00
Orbit: 920 x 1202 km, 28.2° (Epoch: 29 October)

Date Brightness Start Highest point End Pass type
(mag) Time Alt. Az. Time Alt. Az. Time Alt. Az.
30 Oct - 17:24:34 10° SSW 17:29:24 21° SSE 17:34:28 10° ESE visible
30 Oct - 19:16:09 10° SW 19:22:03 29° S 19:28:17 10° ESE visible
30 Oct - 21:09:07 10° WSW 21:14:53 25° SSW 21:20:52 10° SE visible
30 Oct - 23:04:18 10° SW 23:07:33 13° SSW 23:10:50 10° S night (unlit)
31 Oct - 16:24:46 10° SSW 16:28:39 16° SSE 16:32:40 10° ESE daylight
31 Oct - 18:15:34 10° SW 18:21:09 27° S 18:27:04 10° ESE visible
31 Oct - 20:08:06 10° WSW 20:13:55 27° S 20:20:02 10° SE visible
31 Oct - 22:02:09 10° WSW 22:06:39 17° SSW 22:11:16 10° SSE night (unlit)
01 Nov - 15:25:54 10° S 15:27:58 12° SSE 15:30:03 10° SE daylight
01 Nov - 17:15:11 10° SW 17:20:20 24° SSE 17:25:44 10° ESE visible
01 Nov - 19:07:17 10° WSW 19:13:00 28° S 19:19:04 10° SE visible
01 Nov - 21:00:40 10° WSW 21:05:45 21° SSW 21:11:04 10° SSE visible
02 Nov - 16:15:03 10° SSW 16:19:33 20° SSE 16:24:15 10° ESE daylight
02 Nov - 18:06:35 10° SW 18:12:07 28° S 18:18:00 10° ESE visible
02 Nov - 19:59:29 10° WSW 20:04:52 24° SSW 20:10:30 10° SE visible
02 Nov - 21:54:48 10° SW 21:57:29 12° SSW 22:00:12 10° S visible
03 Nov - 15:15:16 10° SSW 15:18:51 15° SSE 15:22:31 10° SE daylight
03 Nov - 17:06:02 10° SW 17:11:18 26° S 17:16:50 10° ESE daylight
03 Nov - 18:58:32 10° WSW 19:03:58 26° S 19:09:43 10° SE visible
03 Nov - 20:52:36 10° SW 20:56:38 16° SSW 21:00:48 10° SSE visible
04 Nov - 14:16:30 10° S 14:18:11 11° SSE 14:19:54 10° SE daylight
04 Nov - 16:05:39 10° SW 16:10:31 23° SSE 16:15:35 10° ESE daylight
04 Nov - 17:57:44 10° WSW 18:03:07 27° S 18:08:48 10° SE visible
04 Nov - 19:51:07 10° WSW 19:55:47 19° SSW 20:00:39 10° SSE visible
05 Nov - 15:05:30 10° SSW 15:09:47 19° SSE 15:14:12 10° ESE daylight
05 Nov - 16:57:03 10° SW 17:02:18 27° S 17:07:48 10° ESE daylight
05 Nov - 18:49:58 10° WSW 18:54:57 22° SSW 19:00:10 10° SE visible
05 Nov - 20:45:44 10° SW 20:47:30 11° SSW 20:49:17 10° S visible
06 Nov - 14:05:42 10° SSW 14:09:06 15° SSE 14:12:33 10° SE daylight
06 Nov - 15:56:30 10° SW 16:01:31 25° S 16:06:44 10° ESE daylight
06 Nov - 17:49:01 10° WSW 17:54:07 25° S 17:59:28 10° SE visible
06 Nov - 19:43:13 10° SW 19:46:42 15° SSW 19:50:18 10° S visible
07 Nov - 13:06:49 10° S 13:08:26 11° SSE 13:10:04 10° SE daylight
07 Nov - 14:56:05 10° SW 15:00:46 22° S 15:05:34 10° ESE daylight
07 Nov - 16:48:13 10° WSW 16:53:19 26° S 16:58:40 10° SE daylight
07 Nov - 18:41:40 10° WSW 18:45:55 18° SSW 18:50:18 10° SSE visible
08 Nov - 13:55:52 10° SSW 14:00:04 19° SSE 14:04:19 10° ESE daylight
08 Nov - 15:47:31 10° SW 15:52:34 26° S 15:57:45 10° SE daylight
08 Nov - 17:40:30 10° WSW 17:45:08 21° SSW 17:49:56 10° SSE visible
